LEMUR-2-LC

Last updated on Fri Mar 10 2017 00:15:03 GMT+0000 (Coordinated Universal Time)

1 42067U 98067LC 17068.55528810 .00006330 00000-0 10000-3 0 9991 2 42067 51.6440 174.9351 0007927 286.4322 73.5791 15.54883893 324
UTC large
Height (km)
Speed (km/s)
/
Latitude / Longitude
Inclination (degrees)
Orbital Period (minutes)
Azimuth
Elevation
Range (km)
Doppler Factor

Next 0 passes for location: London (51.5072 / 0.1276)

Sorry there are no passes over London.